Regional Weather Roundup
Issued by NWS

Home | Current Version | Previous Version | Graphics & Text | Print | Product List | Glossary On
Versions: 1 2 3 4 5 6 7 8 9 10 11 12 13 14 15 16 17 18 19 20 21 22 23 24 25 26 27 28 29 30 31 32 33 34 35 36 37 38 39 40 41 42 43 44 45 46 47 48 49 50
000
ASUS45 KSLC 151310
RWRUT

UTAH REGIONAL WEATHER ROUNDUP
NATIONAL WEATHER SERVICE SALT LAKE CITY UT
700 AM MDT MON SEP 15 2014

UTZ001>011-023>025-151400-

NORTHERN UTAH

CITY           SKY/WX    TMP DP  RH WIND       PRES   REMARKS
HILL AFB       MOCLDY    64  39  39 SE17      30.11R
LOGAN          CLEAR     50  44  80 MISG      30.14R
OGDEN          PTCLDY    64  41  42 CALM      30.08R
PROVO AIRPORT  PTCLDY    57  39  51 SE7       30.14R
SALT LAKE CITY MOCLDY    66  42  41 NE6       30.08R
VERNAL         PTCLDY    51  41  68 NW3       30.22R
WENDOVER       PTCLDY    61  32  33 N6        30.09R
HEBER CITY     PTCLDY    43  37  81 CALM      30.23R
WEST JORDAN    CLEAR     64  37  36 SW10      30.11R

$$

UTZ012>022-026-027-151400-

SOUTHERN UTAH

CITY           SKY/WX    TMP DP  RH WIND       PRES   REMARKS
BRYCE CANYON   CLEAR     43  37  79 W9        30.35R
CEDAR CITY     CLEAR     54  42  64 SE6       30.19R
MILFORD        CLEAR     52  39  61 S7        30.14R
MOAB/CYNLANDS  CLEAR     63  41  44 E8        30.12R
PRICE          PTCLDY    56  30  37 N8        30.21R
ST GEORGE      MOSUNNY   66  45  45 CALM      30.03R
KANAB            N/A     54  39  58 NE7       30.19R

$$

REGIONAL REPORTS     COLORADO/ARIZONA

CITY           SKY/WX    TMP DP  RH WIND       PRES   REMARKS
CRAIG, CO      CLEAR     37  34  89 CALM      30.31R
GRAND JUNCTION MOCLDY    59  39  47 NE13      30.20R THUNDER
RIFLE          CLEAR     49  38  65 VRB3      30.27R
MONTROSE       CLEAR     53  41  63 SE8       30.27R
CORTEZ         CLEAR     46  41  82 MISG      30.27R
PAGE, AZ       CLEAR     71  47  42 S3        30.11R
GRAND CANYON   PTCLDY    46  43  89 E3        30.29R
KINGMAN        CLEAR     73  50  44 SE15      30.03R
FLAGSTAFF      CLEAR     48  45  89 CALM      30.31R

$$

REGIONAL REPORTS    NEVADA/IDAHO/WYOMING

CITY           SKY/WX    TMP DP  RH WIND       PRES   REMARKS
LAS VEGAS, NV  CLEAR     79  50  36 SW6       29.88R
ELY            CLEAR     45  34  65 S9        30.23R
ELKO           MOCLDY    49  27  42 E7        30.17R
POCATELLO, ID  PTCLDY    46  35  65 S5        30.12S
BURLEY         PTCLDY    48  41  76 CALM      30.09S
EVANSTON, WY   PTCLDY    53  34  48 S6        30.30R
ROCK SPRINGS   CLEAR     43  33  68 NE8       30.31S

$$


USA.gov is the U.S. government's official web portal to all federal, state and local government web resources and services.